Time,TemperatureF,DewpointF,PressureIn,WindDirection,WindDirectionDegrees,WindSpeedMPH,WindSpeedGustMPH,Humidity,HourlyPrecipIn,Conditions,Clouds,dailyrainin,SoftwareType,DateUTC
2013-04-27 00:03:00,59.0,-99.9,-100.00,South,183,2.0,-999.0,-999,-99.99,,,-99.99,,2013-04-27 04:03:00,
2013-04-27 00:13:00,59.0,-99.9,-100.00,South,174,3.0,-999.0,-999,-99.99,,,0.00,,2013-04-27 04:13:00,
2013-04-27 00:23:00,58.0,-99.9,-100.00,WNW,296,3.0,-999.0,-999,-99.99,,,-99.99,,2013-04-27 04:23:00,
2013-04-27 00:33:00,58.0,-99.9,-100.00,WNW,296,3.0,-999.0,-999,-99.99,,,-99.99,,2013-04-27 04:33:00,
2013-04-27 00:43:00,58.0,-99.9,-100.00,NW,316,3.0,-999.0,-999,-99.99,,,0.00,,2013-04-27 04:43:00,
2013-04-27 00:53:00,57.0,-99.9,-100.00,WSW,250,2.0,-999.0,-999,-99.99,,,-99.99,,2013-04-27 04:53:00,
2013-04-27 01:02:00,57.0,-99.9,-100.00,WSW,250,2.0,-999.0,-999,-99.99,,,-99.99,,2013-04-27 05:02:00,
2013-04-27 01:12:00,58.0,-99.9,-100.00,SW,227,3.0,-999.0,-999,-99.99,,,0.00,,2013-04-27 05:12:00,
2013-04-27 01:22:00,59.0,-99.9,-100.00,ENE,57,2.0,-999.0,-999,-99.99,,,-99.99,,2013-04-27 05:22:00,
2013-04-27 01:32:00,59.0,-99.9,-100.00,ENE,57,2.0,-999.0,-999,-99.99,,,-99.99,,2013-04-27 05:32:00,
2013-04-27 01:42:00,59.0,-99.9,-100.00,ENE,57,2.0,-999.0,-999,-99.99,,,-99.99,,2013-04-27 05:42:00,
2013-04-27 02:12:00,55.0,-99.9,-100.00,West,264,3.0,-999.0,-999,-99.99,,,0.00,,2013-04-27 06:12:00,
2013-04-27 02:22:00,54.0,-99.9,-100.00,SSW,212,3.0,-999.0,-999,-99.99,,,-99.99,,2013-04-27 06:22:00,
2013-04-27 02:32:00,54.0,-99.9,-100.00,SSW,212,3.0,-999.0,-999,-99.99,,,-99.99,,2013-04-27 06:32:00,
2013-04-27 02:42:00,54.0,-99.9,-100.00,SSW,212,3.0,-999.0,-999,-99.99,,,-99.99,,2013-04-27 06:42:00,
2013-04-27 02:52:00,53.0,-99.9,-100.00,South,180,3.0,-999.0,-999,-99.99,,,-99.99,,2013-04-27 06:52:00,
2013-04-27 03:02:00,53.0,-99.9,-100.00,South,180,3.0,-999.0,-999,-99.99,,,-99.99,,2013-04-27 07:02:00,
2013-04-27 03:11:00,52.0,-99.9,-100.00,WSW,255,3.0,-999.0,-999,-99.99,,,0.00,,2013-04-27 07:11:00,
2013-04-27 03:22:00,52.0,-99.9,-100.00,SW,214,2.0,-999.0,-999,-99.99,,,-99.99,,2013-04-27 07:22:00,
2013-04-27 03:32:00,52.0,-99.9,-100.00,SW,214,2.0,-999.0,-999,-99.99,,,-99.99,,2013-04-27 07:32:00,
2013-04-27 03:42:00,52.0,-99.9,-100.00,WNW,292,2.0,-999.0,-999,-99.99,,,0.00,,2013-04-27 07:42:00,
2013-04-27 03:52:00,52.0,-99.9,-100.00,NW,307,2.0,-999.0,-999,-99.99,,,-99.99,,2013-04-27 07:52:00,
2013-04-27 04:02:00,52.0,-99.9,-100.00,NW,307,2.0,-999.0,-999,-99.99,,,-99.99,,2013-04-27 08:02:00,
2013-04-27 04:12:00,52.0,-99.9,-100.00,SSE,156,0.0,-999.0,-999,-99.99,,,0.00,,2013-04-27 08:12:00,
2013-04-27 04:22:00,52.0,-99.9,-100.00,NNE,25,1.0,-999.0,-999,-99.99,,,-99.99,,2013-04-27 08:22:00,
2013-04-27 04:33:00,52.0,-99.9,-100.00,NNE,25,1.0,-999.0,-999,-99.99,,,-99.99,,2013-04-27 08:33:00,
2013-04-27 04:42:00,52.0,-99.9,-100.00,North,359,2.0,-999.0,-999,-99.99,,,0.00,,2013-04-27 08:42:00,
2013-04-27 04:52:00,52.0,-99.9,-100.00,NNE,22,2.0,-999.0,-999,-99.99,,,-99.99,,2013-04-27 08:52:00,
2013-04-27 05:01:00,52.0,-99.9,-100.00,NNE,22,2.0,-999.0,-999,-99.99,,,-99.99,,2013-04-27 09:01:00,
2013-04-27 05:11:00,52.0,-99.9,-100.00,ENE,63,3.0,-999.0,-999,-99.99,,,0.00,,2013-04-27 09:11:00,
2013-04-27 05:22:00,52.0,-99.9,-100.00,South,176,3.0,-999.0,-999,-99.99,,,0.00,,2013-04-27 09:22:00,
2013-04-27 05:33:00,52.0,-99.9,-100.00,South,176,3.0,-999.0,-999,-99.99,,,0.00,,2013-04-27 09:33:00,
2013-04-27 05:43:00,52.0,-99.9,-100.00,South,176,3.0,-999.0,-999,-99.99,,,0.00,,2013-04-27 09:43:00,
2013-04-27 05:53:00,52.0,-99.9,-100.00,NE,55,1.0,-999.0,-999,-99.99,,,0.00,,2013-04-27 09:53:00,
2013-04-27 06:03:00,52.0,-99.9,-100.00,NE,55,1.0,-999.0,-999,-99.99,,,0.00,,2013-04-27 10:03:00,
2013-04-27 06:12:00,52.0,-99.9,-100.00,NE,55,1.0,-999.0,-999,-99.99,,,0.00,,2013-04-27 10:12:00,
2013-04-27 06:23:00,51.0,-99.9,-100.00,East,84,3.0,-999.0,-999,-99.99,,,0.00,,2013-04-27 10:23:00,
2013-04-27 06:30:00,52.0,-99.9,-100.00,NE,39,2.0,-999.0,-999,-99.99,,,0.00,,2013-04-27 10:30:00,
2013-04-27 06:33:00,51.0,-99.9,-100.00,East,84,3.0,-999.0,-999,-99.99,,,0.00,,2013-04-27 10:33:00,
2013-04-27 06:42:00,51.0,-99.9,-100.00,East,84,3.0,-999.0,-999,-99.99,,,0.00,,2013-04-27 10:42:00,
2013-04-27 06:53:00,52.0,-99.9,-100.00,NE,39,2.0,-999.0,-999,-99.99,,,0.00,,2013-04-27 10:53:00,
2013-04-27 07:00:00,51.0,-99.9,-100.00,WNW,282,2.0,-999.0,-999,-99.99,,,0.00,,2013-04-27 11:00:00,
2013-04-27 07:03:00,52.0,-99.9,-100.00,NE,39,2.0,-999.0,-999,-99.99,,,0.00,,2013-04-27 11:03:00,
2013-04-27 07:12:00,52.0,-99.9,-100.00,NE,39,2.0,-999.0,-999,-99.99,,,0.00,,2013-04-27 11:12:00,
2013-04-27 07:22:00,52.0,-99.9,-100.00,NE,39,2.0,-999.0,-999,-99.99,,,0.00,,2013-04-27 11:22:00,
2013-04-27 07:30:00,51.0,-99.9,-100.00,ESE,117,1.0,-999.0,-999,-99.99,,,-99.99,,2013-04-27 11:30:00,
2013-04-27 07:42:00,51.0,-99.9,-100.00,WNW,282,2.0,-999.0,-999,-99.99,,,0.00,,2013-04-27 11:42:00,
2013-04-27 07:52:00,51.0,-99.9,-100.00,WNW,282,2.0,-999.0,-999,-99.99,,,0.00,,2013-04-27 11:52:00,
2013-04-27 08:00:00,52.0,-99.9,-100.00,ENE,66,1.0,-999.0,-999,-99.99,,,0.00,,2013-04-27 12:00:00,
2013-04-27 08:12:00,51.0,-99.9,-100.00,ESE,117,1.0,-999.0,-999,-99.99,,,-99.99,,2013-04-27 12:12:00,
2013-04-27 08:22:00,51.0,-99.9,-100.00,ESE,117,1.0,-999.0,-999,-99.99,,,-99.99,,2013-04-27 12:22:00,
2013-04-27 08:30:00,52.0,-99.9,-100.00,North,2,6.0,-999.0,-999,-99.99,,,-99.99,,2013-04-27 12:30:00,
2013-04-27 08:42:00,51.0,-99.9,-100.00,NNW,339,1.0,-999.0,-999,-99.99,,,0.00,,2013-04-27 12:42:00,
2013-04-27 08:52:00,52.0,-99.9,-100.00,ENE,66,1.0,-999.0,-999,-99.99,,,0.00,,2013-04-27 12:52:00,
2013-04-27 09:00:00,53.0,-99.9,-100.00,NNE,33,6.0,-999.0,-999,-99.99,,,0.00,,2013-04-27 13:00:00,
2013-04-27 09:12:00,52.0,-99.9,-100.00,North,2,6.0,-999.0,-999,-99.99,,,-99.99,,2013-04-27 13:12:00,
2013-04-27 09:22:00,52.0,-99.9,-100.00,North,2,6.0,-999.0,-999,-99.99,,,-99.99,,2013-04-27 13:22:00,
2013-04-27 09:30:00,54.0,-99.9,-100.00,NE,44,6.0,-999.0,-999,-99.99,,,-99.99,,2013-04-27 13:30:00,
2013-04-27 09:42:00,53.0,-99.9,-100.00,NNE,33,6.0,-999.0,-999,-99.99,,,0.00,,2013-04-27 13:42:00,
2013-04-27 09:52:00,53.0,-99.9,-100.00,NNE,33,6.0,-999.0,-999,-99.99,,,0.00,,2013-04-27 13:52:00,
2013-04-27 10:00:00,54.0,-99.9,-100.00,NNE,17,4.0,-999.0,-999,-99.99,,,0.00,,2013-04-27 14:00:00,
2013-04-27 10:12:00,54.0,-99.9,-100.00,NE,44,6.0,-999.0,-999,-99.99,,,-99.99,,2013-04-27 14:12:00,
2013-04-27 10:22:00,54.0,-99.9,-100.00,NE,44,6.0,-999.0,-999,-99.99,,,-99.99,,2013-04-27 14:22:00,
2013-04-27 10:30:00,53.0,-99.9,-100.00,North,355,3.0,-999.0,-999,-99.99,,,-99.99,,2013-04-27 14:30:00,
2013-04-27 10:42:00,54.0,-99.9,-100.00,NNE,17,4.0,-999.0,-999,-99.99,,,0.00,,2013-04-27 14:42:00,
2013-04-27 10:52:00,54.0,-99.9,-100.00,NNE,17,4.0,-999.0,-999,-99.99,,,0.00,,2013-04-27 14:52:00,
2013-04-27 11:00:00,53.0,-99.9,-100.00,ENE,76,2.0,-999.0,-999,-99.99,,,0.00,,2013-04-27 15:00:00,
2013-04-27 11:12:00,53.0,-99.9,-100.00,North,355,3.0,-999.0,-999,-99.99,,,-99.99,,2013-04-27 15:12:00,
2013-04-27 11:22:00,53.0,-99.9,-100.00,North,355,3.0,-999.0,-999,-99.99,,,-99.99,,2013-04-27 15:22:00,
2013-04-27 11:43:00,53.0,-99.9,-100.00,NNW,339,3.0,-999.0,-999,-99.99,,,0.00,,2013-04-27 15:43:00,
2013-04-27 11:53:00,53.0,-99.9,-100.00,ENE,76,2.0,-999.0,-999,-99.99,,,0.00,,2013-04-27 15:53:00,
2013-04-27 12:13:00,54.0,-99.9,-100.00,ESE,106,4.0,-999.0,-999,-99.99,,,0.00,,2013-04-27 16:13:00,
2013-04-27 12:23:00,54.0,-99.9,-100.00,NE,40,3.0,-999.0,-999,-99.99,,,0.00,,2013-04-27 16:23:00,
2013-04-27 12:33:00,54.0,-99.9,-100.00,NE,40,3.0,-999.0,-999,-99.99,,,0.00,,2013-04-27 16:33:00,
2013-04-27 12:42:00,54.0,-99.9,-100.00,NE,40,3.0,-999.0,-999,-99.99,,,0.00,,2013-04-27 16:42:00,
2013-04-27 13:22:00,54.0,-99.9,-100.00,East,80,3.0,-999.0,-999,-99.99,,,0.00,,2013-04-27 17:22:00,
2013-04-27 13:32:00,54.0,-99.9,-100.00,East,80,3.0,-999.0,-999,-99.99,,,0.00,,2013-04-27 17:32:00,
2013-04-27 13:42:00,54.0,-99.9,-100.00,East,80,3.0,-999.0,-999,-99.99,,,0.00,,2013-04-27 17:42:00,
2013-04-27 13:53:00,54.0,-99.9,-100.00,ENE,73,3.0,-999.0,-999,-99.99,,,0.00,,2013-04-27 17:53:00,
2013-04-27 14:02:00,54.0,-99.9,-100.00,ENE,73,3.0,-999.0,-999,-99.99,,,0.00,,2013-04-27 18:02:00,
2013-04-27 14:12:00,54.0,-99.9,-100.00,ENE,73,3.0,-999.0,-999,-99.99,,,0.00,,2013-04-27 18:12:00,
2013-04-27 14:22:00,53.0,-99.9,-100.00,SE,139,6.0,-999.0,-999,-99.99,,,0.00,,2013-04-27 18:22:00,
2013-04-27 14:32:00,53.0,-99.9,-100.00,SE,139,6.0,-999.0,-999,-99.99,,,0.00,,2013-04-27 18:32:00,
2013-04-27 14:42:00,53.0,-99.9,-100.00,SE,139,6.0,-999.0,-999,-99.99,,,0.00,,2013-04-27 18:42:00,
2013-04-27 14:52:00,54.0,-99.9,-100.00,SSW,195,3.0,-999.0,-999,-99.99,,,-99.99,,2013-04-27 18:52:00,
2013-04-27 15:02:00,54.0,-99.9,-100.00,SSW,195,3.0,-999.0,-999,-99.99,,,-99.99,,2013-04-27 19:02:00,
2013-04-27 15:11:00,54.0,-99.9,-100.00,SSW,195,3.0,-999.0,-999,-99.99,,,-99.99,,2013-04-27 19:11:00,
2013-04-27 15:22:00,54.0,-99.9,-100.00,East,81,3.0,-999.0,-999,-99.99,,,0.00,,2013-04-27 19:22:00,
2013-04-27 15:32:00,54.0,-99.9,-100.00,East,81,3.0,-999.0,-999,-99.99,,,0.00,,2013-04-27 19:32:00,
2013-04-27 15:42:00,54.0,-99.9,-100.00,East,81,3.0,-999.0,-999,-99.99,,,0.00,,2013-04-27 19:42:00,
2013-04-27 15:53:00,54.0,-99.9,-100.00,East,98,4.0,-999.0,-999,-99.99,,,0.00,,2013-04-27 19:53:00,
2013-04-27 16:02:00,54.0,-99.9,-100.00,East,98,4.0,-999.0,-999,-99.99,,,0.00,,2013-04-27 20:02:00,
2013-04-27 16:11:00,54.0,-99.9,-100.00,East,98,4.0,-999.0,-999,-99.99,,,0.00,,2013-04-27 20:11:00,
2013-04-27 16:22:00,53.0,-99.9,-100.00,SSW,212,2.0,-999.0,-999,-99.99,,,0.00,,2013-04-27 20:22:00,
2013-04-27 16:32:00,53.0,-99.9,-100.00,SSW,212,2.0,-999.0,-999,-99.99,,,0.00,,2013-04-27 20:32:00,
2013-04-27 16:42:00,53.0,-99.9,-100.00,SSW,212,2.0,-999.0,-999,-99.99,,,0.00,,2013-04-27 20:42:00,
2013-04-27 16:52:00,53.0,-99.9,-100.00,SSE,164,3.0,-999.0,-999,-99.99,,,0.00,,2013-04-27 20:52:00,
2013-04-27 17:02:00,53.0,-99.9,-100.00,SSE,164,3.0,-999.0,-999,-99.99,,,0.00,,2013-04-27 21:02:00,
2013-04-27 17:12:00,53.0,-99.9,-100.00,SSE,164,3.0,-999.0,-999,-99.99,,,0.00,,2013-04-27 21:12:00,
2013-04-27 17:22:00,53.0,-99.9,-100.00,WSW,238,2.0,-999.0,-999,-99.99,,,0.00,,2013-04-27 21:22:00,
2013-04-27 17:33:00,53.0,-99.9,-100.00,WSW,238,2.0,-999.0,-999,-99.99,,,0.00,,2013-04-27 21:33:00,
2013-04-27 17:43:00,53.0,-99.9,-100.00,WSW,238,2.0,-999.0,-999,-99.99,,,0.00,,2013-04-27 21:43:00,
2013-04-27 17:53:00,53.0,-99.9,-100.00,North,359,3.0,-999.0,-999,-99.99,,,0.00,,2013-04-27 21:53:00,
2013-04-27 18:00:00,54.0,-99.9,-100.00,NNE,19,3.0,-999.0,-999,-99.99,,,0.00,,2013-04-27 22:00:00,
2013-04-27 18:03:00,53.0,-99.9,-100.00,North,359,3.0,-999.0,-999,-99.99,,,0.00,,2013-04-27 22:03:00,
2013-04-27 18:13:00,53.0,-99.9,-100.00,NW,311,3.0,-999.0,-999,-99.99,,,0.00,,2013-04-27 22:13:00,
2013-04-27 18:23:00,53.0,-99.9,-100.00,NE,37,2.0,-999.0,-999,-99.99,,,0.00,,2013-04-27 22:23:00,
2013-04-27 18:32:00,53.0,-99.9,-100.00,NE,37,2.0,-999.0,-999,-99.99,,,0.00,,2013-04-27 22:32:00,
2013-04-27 18:42:00,54.0,-99.9,-100.00,NNE,19,3.0,-999.0,-999,-99.99,,,0.00,,2013-04-27 22:42:00,
2013-04-27 18:53:00,54.0,-99.9,-100.00,NNE,19,3.0,-999.0,-999,-99.99,,,0.00,,2013-04-27 22:53:00,
2013-04-27 19:12:00,53.0,-99.9,-100.00,NNW,335,4.0,-999.0,-999,-99.99,,,0.00,,2013-04-27 23:12:00,
2013-04-27 19:22:00,53.0,-99.9,-100.00,NNE,27,3.0,-999.0,-999,-99.99,,,0.00,,2013-04-27 23:22:00,
2013-04-27 19:32:00,53.0,-99.9,-100.00,NNE,27,3.0,-999.0,-999,-99.99,,,0.00,,2013-04-27 23:32:00,
2013-04-27 19:43:00,53.0,-99.9,-100.00,NNE,33,3.0,-999.0,-999,-99.99,,,0.00,,2013-04-27 23:43:00,
2013-04-27 19:53:00,53.0,-99.9,-100.00,NE,53,4.0,-999.0,-999,-99.99,,,0.00,,2013-04-27 23:53:00,
2013-04-27 20:02:00,53.0,-99.9,-100.00,NE,53,4.0,-999.0,-999,-99.99,,,0.00,,2013-04-28 00:02:00,
2013-04-27 20:12:00,53.0,-99.9,-100.00,NNE,33,4.0,-999.0,-999,-99.99,,,0.00,,2013-04-28 00:12:00,
2013-04-27 20:22:00,53.0,-99.9,-100.00,NNE,26,4.0,-999.0,-999,-99.99,,,0.00,,2013-04-28 00:22:00,
2013-04-27 20:32:00,53.0,-99.9,-100.00,NNE,26,4.0,-999.0,-999,-99.99,,,0.00,,2013-04-28 00:32:00,
2013-04-27 20:43:00,53.0,-99.9,-100.00,NNE,26,4.0,-999.0,-999,-99.99,,,0.00,,2013-04-28 00:43:00,
2013-04-27 21:12:00,53.0,-99.9,-100.00,North,354,3.0,-999.0,-999,-99.99,,,0.00,,2013-04-28 01:12:00,
2013-04-27 21:22:00,53.0,-99.9,-100.00,North,0,2.0,-999.0,-999,-99.99,,,0.00,,2013-04-28 01:22:00,
2013-04-27 21:32:00,53.0,-99.9,-100.00,North,0,2.0,-999.0,-999,-99.99,,,0.00,,2013-04-28 01:32:00,
2013-04-27 21:42:00,53.0,-99.9,-100.00,North,7,4.0,-999.0,-999,-99.99,,,0.00,,2013-04-28 01:42:00,
2013-04-27 21:52:00,53.0,-99.9,-100.00,NNE,20,3.0,-999.0,-999,-99.99,,,0.00,,2013-04-28 01:52:00,
2013-04-27 22:02:00,53.0,-99.9,-100.00,NNE,20,3.0,-999.0,-999,-99.99,,,0.00,,2013-04-28 02:02:00,
2013-04-27 22:12:00,53.0,-99.9,-100.00,NNE,12,2.0,-999.0,-999,-99.99,,,0.00,,2013-04-28 02:12:00,
2013-04-27 22:22:00,53.0,-99.9,-100.00,NNE,26,3.0,-999.0,-999,-99.99,,,0.00,,2013-04-28 02:22:00,
2013-04-27 22:32:00,53.0,-99.9,-100.00,NNE,26,3.0,-999.0,-999,-99.99,,,0.00,,2013-04-28 02:32:00,
2013-04-27 22:42:00,53.0,-99.9,-100.00,NNW,346,3.0,-999.0,-999,-99.99,,,0.00,,2013-04-28 02:42:00,
2013-04-27 22:52:00,53.0,-99.9,-100.00,North,358,3.0,-999.0,-999,-99.99,,,0.00,,2013-04-28 02:52:00,
2013-04-27 23:02:00,53.0,-99.9,-100.00,North,358,3.0,-999.0,-999,-99.99,,,0.00,,2013-04-28 03:02:00,
2013-04-27 23:12:00,53.0,-99.9,-100.00,NNW,341,2.0,-999.0,-999,-99.99,,,0.00,,2013-04-28 03:12:00,
2013-04-27 23:22:00,54.0,-99.9,-100.00,North,2,2.0,-999.0,-999,-99.99,,,0.00,,2013-04-28 03:22:00,
2013-04-27 23:33:00,54.0,-99.9,-100.00,North,2,2.0,-999.0,-999,-99.99,,,0.00,,2013-04-28 03:33:00,
2013-04-27 23:43:00,54.0,-99.9,-100.00,NNW,338,2.0,-999.0,-999,-99.99,,,0.00,,2013-04-28 03:43:00,
2013-04-27 23:53:00,54.0,-99.9,-100.00,ENE,77,2.0,-999.0,-999,-99.99,,,0.00,,2013-04-28 03:53:00,